Seabourn Quest — C6YZ5 — position and weather

sailwx.info

Track history (hours):
 
Tides and Currents Weather Stations Pressure Air Temp Water Temp Dewpoint Dewpoint Depression Visibility Wind Speed Wind Dir Waves Ship Positions

Seabourn Quest

Last reported at 2014-Oct-25 08:33 UTC. Time now 2014-Oct-25 09:25 UTC.
Position N 26°13' W 079°58'.

Length 197 m; draft 6.6 m.

Type: Passenger vessel. MMSI: 311038900.

Date/timePositionNaut miles runAvg speedWind from/ knotsBaromVisibWave heightAir tempDewpointWater temp
2014-Oct-25 08:33N 26°13' W 079°58'1010.2
2014-Oct-25 07:33N 26°23' W 079°57'1110.6
2014-Oct-25 06:33N 26°34' W 079°57'  
2014-Oct-21 02:33N 40°27' W 071°41'1212.2
2014-Oct-21 01:33N 40°38' W 071°36'1212.3
2014-Oct-21 00:33N 40°50' W 071°32'1212.3
2014-Oct-20 23:33N 41°02' W 071°26'1212.2
2014-Oct-20 22:33N 41°14' W 071°25'1212.1
2014-Oct-20 21:33N 41°26' W 071°24'4 4.0
2014-Oct-20 20:28N 41°29' W 071°20'0 0.0
2014-Oct-20 19:16N 41°29' W 071°20'0 0.1
2014-Oct-20 18:28N 41°29' W 071°20'0 0.0
2014-Oct-20 17:31N 41°29' W 071°20'0 0.1
2014-Oct-20 16:28N 41°29' W 071°20'0 0.0
2014-Oct-20 15:22N 41°29' W 071°20'0 0.0
2014-Oct-20 14:31N 41°29' W 071°20'0 0.0
2014-Oct-20 13:30N 41°29' W 071°20'0 0.0
2014-Oct-20 12:30N 41°29' W 071°20'0 0.1
2014-Oct-20 11:33N 41°29' W 071°20'6 5.5
2014-Oct-20 10:33N 41°24' W 071°22'5 5.1
2014-Oct-20 09:33N 41°20' W 071°17'8 8.4
2014-Oct-20 08:33N 41°23' W 071°07'1511.8
2014-Oct-20 07:16N 41°31' W 070°49'45 7.8
2014-Oct-20 01:28N 42°16' W 070°39'18 6.3
2014-Oct-19 22:33N 42°33' W 070°48'3 0.3
2014-Oct-19 11:24N 42°31' W 070°53'5 5.4
2014-Oct-19 10:33N 42°32' W 070°47'  
Track history (hours):
 
Tides and Currents Weather Stations Pressure Air Temp Water Temp Dewpoint Dewpoint Depression Visibility Wind Speed Wind Dir Waves Ship Positions

Seabourn Quest

Last reported at 2014-Oct-25 08:33 UTC. Time now 2014-Oct-25 09:25 UTC.
Position N 26°13' W 079°58'.

Length 197 m; draft 6.6 m.

Type: Passenger vessel. MMSI: 311038900.

Date/timePositionNaut miles runAvg speedWind from/ knotsBaromVisibWave heightAir tempDewpointWater temp
2014-Oct-25 08:33N 26°13' W 079°58'1010.2
2014-Oct-25 07:33N 26°23' W 079°57'1110.6
2014-Oct-25 06:33N 26°34' W 079°57'  
2014-Oct-21 02:33N 40°27' W 071°41'1212.2
2014-Oct-21 01:33N 40°38' W 071°36'1212.3
2014-Oct-21 00:33N 40°50' W 071°32'1212.3
2014-Oct-20 23:33N 41°02' W 071°26'1212.2
2014-Oct-20 22:33N 41°14' W 071°25'1212.1
2014-Oct-20 21:33N 41°26' W 071°24'4 4.0
2014-Oct-20 20:28N 41°29' W 071°20'0 0.0
2014-Oct-20 19:16N 41°29' W 071°20'0 0.1
2014-Oct-20 18:28N 41°29' W 071°20'0 0.0
2014-Oct-20 17:31N 41°29' W 071°20'0 0.1
2014-Oct-20 16:28N 41°29' W 071°20'0 0.0
2014-Oct-20 15:22N 41°29' W 071°20'0 0.0
2014-Oct-20 14:31N 41°29' W 071°20'0 0.0
2014-Oct-20 13:30N 41°29' W 071°20'0 0.0
2014-Oct-20 12:30N 41°29' W 071°20'0 0.1
2014-Oct-20 11:33N 41°29' W 071°20'6 5.5
2014-Oct-20 10:33N 41°24' W 071°22'5 5.1
2014-Oct-20 09:33N 41°20' W 071°17'8 8.4
2014-Oct-20 08:33N 41°23' W 071°07'1511.8
2014-Oct-20 07:16N 41°31' W 070°49'45 7.8
2014-Oct-20 01:28N 42°16' W 070°39'18 6.3
2014-Oct-19 22:33N 42°33' W 070°48'3 0.3
2014-Oct-19 11:24N 42°31' W 070°53'5 5.4
2014-Oct-19 10:33N 42°32' W 070°47'  

Dump ship's entire track history